CE1CVI-13 Weather Reports


Display with metric or nautical units.
time (UTC)temp
F
wind
direction
speed
MPH
gust
MPH
rain 1hr
in
rain 24hr
in
rain mn
in
humidity
%
barometer
mb
20200706022605 70 0.0 0.0 0.00 0.00 0.00 60 1018.6
20200706021605 70 0.0 0.0 0.00 0.00 0.00 60 1018.5
20200706020605 70 0.0 0.0 0.00 0.00 0.00 60 1018.3
20200706015605 70 0.0 0.0 0.00 0.00 0.00 60 1018.2
20200706014605 70 0.0 0.0 0.00 0.00 0.00 60 1018.1
20200706013605 70 0.0 0.0 0.00 0.00 0.00 60 1018.1
20200706012606 70 0.0 0.0 0.00 0.00 0.00 60 1018.0
20200706011605 70 0.0 0.0 0.00 0.00 0.00 60 1017.9
20200706010605 70 0.0 0.0 0.00 0.00 0.00 60 1018.0
20200706005605 70 0.0 0.0 0.00 0.00 0.00 60 1017.8
20200706004605 71 0.0 0.0 0.00 0.00 0.00 60 1017.7
20200706003605 71 0.0 0.0 0.00 0.00 0.00 59 1017.6
20200706002605 71 0.0 0.0 0.00 0.00 0.00 59 1017.4
20200706001605 71 0.0 0.0 0.00 0.00 0.00 59 1017.3
20200706000605 71 0.0 0.0 0.00 0.00 0.00 59 1017.3
20200705235605 71 0.0 0.0 0.00 0.00 0.00 59 1017.3
20200705234605 71 0.0 0.0 0.00 0.00 0.00 60 1017.2
20200705233605 71 0.0 0.0 0.00 0.00 0.00 59 1017.2
20200705232605 71 0.0 0.0 0.00 0.00 0.00 58 1017.3
20200705231605 71 0.0 0.0 0.00 0.00 0.00 58 1017.2
20200705230605 71 0.0 0.0 0.00 0.00 0.00 58 1017.1
20200705225605 70 0.0 0.0 0.00 0.00 0.00 56 1016.9
20200705224605 70 0.0 0.0 0.00 0.00 0.00 56 1017.0
20200705223605 70 0.0 0.0 0.00 0.00 0.00 57 1016.9
20200705222605 70 0.0 0.0 0.00 0.00 0.00 56 1016.7
20200705221605 70 0.0 0.0 0.00 0.00 0.00 54 1016.6
20200705220605 71 0.0 0.0 0.00 0.00 0.00 56 1016.7
20200705215605 71 0.0 0.0 0.00 0.00 0.00 55 1016.7
20200705212605 71 0.0 0.0 0.00 0.00 0.00 55 1016.4
20200705211605 70 0.0 0.0 0.00 0.00 0.00 55 1016.5
20200705210606 70 0.0 0.0 0.00 0.00 0.00 55 1016.4
20200705205605 70 0.0 0.0 0.00 0.00 0.00 56 1016.4
20200705204605 70 0.0 0.0 0.00 0.00 0.00 55 1016.4
20200705203605 70 0.0 0.0 0.00 0.00 0.00 55 1016.3
20200705202605 70 0.0 0.0 0.00 0.00 0.00 55 1016.3
20200705201605 71 0.0 0.0 0.00 0.00 0.00 55 1016.3
20200705200605 70 0.0 0.0 0.00 0.00 0.00 54 1016.4
20200705195605 71 0.0 0.0 0.00 0.00 0.00 54 1016.6
20200705194605 71 0.0 0.0 0.00 0.00 0.00 54 1016.6
20200705193605 71 0.0 0.0 0.00 0.00 0.00 54 1016.8
20200705192605 71 0.0 0.0 0.00 0.00 0.00 54 1016.7
20200705191605 71 0.0 0.0 0.00 0.00 0.00 54 1016.8
20200705190605 71 0.0 0.0 0.00 0.00 0.00 53 1016.9
20200705185605 72 0.0 0.0 0.00 0.00 0.00 54 1016.9
20200705184605 71 0.0 0.0 0.00 0.00 0.00 53 1017.0
20200705183605 72 0.0 0.0 0.00 0.00 0.00 53 1017.2
20200705182605 72 0.0 0.0 0.00 0.00 0.00 52 1017.1
20200705181605 73 0.0 0.0 0.00 0.00 0.00 52 1017.0
20200705180605 72 0.0 0.0 0.00 0.00 0.00 53 1017.2
20200705175605 72 0.0 0.0 0.00 0.00 0.00 52 1017.3
20200705174612 72 0.0 0.0 0.00 0.00 0.00 51 1017.2
20200705173605 73 0.0 0.0 0.00 0.00 0.00 50 1017.4
20200705172605 73 0.0 0.0 0.00 0.00 0.00 50 1017.6
20200705171606 73 0.0 0.0 0.00 0.00 0.00 50 1017.9
20200705170605 73 0.0 0.0 0.00 0.00 0.00 49 1018.0
20200705165605 72 0.0 0.0 0.00 0.00 0.00 50 1018.0
20200705164605 72 0.0 0.0 0.00 0.00 0.00 51 1018.3
20200705163605 72 0.0 0.0 0.00 0.00 0.00 50 1018.4
20200705162605 72 0.0 0.0 0.00 0.00 0.00 51 1018.7
20200705161605 70 0.0 0.0 0.00 0.00 0.00 54 1018.7
20200705160606 70 0.0 0.0 0.00 0.00 0.00 52 1019.0
20200705155605 69 0.0 0.0 0.00 0.00 0.00 52 1019.1
20200705154605 69 0.0 0.0 0.00 0.00 0.00 52 1019.2
20200705153605 70 0.0 0.0 0.00 0.00 0.00 51 1019.4
20200705152605 69 0.0 0.0 0.00 0.00 0.00 52 1019.2
20200705151605 68 0.0 0.0 0.00 0.00 0.00 55 1019.3
20200705150605 69 0.0 0.0 0.00 0.00 0.00 57 1019.4
20200705145605 68 0.0 0.0 0.00 0.00 0.00 57 1019.4
20200705144605 68 0.0 0.0 0.00 0.00 0.00 56 1019.2
20200705143606 68 0.0 0.0 0.00 0.00 0.00 55 1019.3
20200705142605 68 0.0 0.0 0.00 0.00 0.00 56 1019.2
20200705141605 68 0.0 0.0 0.00 0.00 0.00 55 1019.3
20200705140605 68 0.0 0.0 0.00 0.00 0.00 54 1019.2
20200705135605 68 0.0 0.0 0.00 0.00 0.00 55 1019.3
20200705134606 68 0.0 0.0 0.00 0.00 0.00 55 1019.2
20200705133606 68 0.0 0.0 0.00 0.00 0.00 55 1019.2
20200705132605 68 0.0 0.0 0.00 0.00 0.00 55 1019.2
20200705131605 68 0.0 0.0 0.00 0.00 0.00 55 1019.0
20200705130606 68 0.0 0.0 0.00 0.00 0.00 54 1019.0
20200705125605 68 0.0 0.0 0.00 0.00 0.00 54 1018.8
20200705124606 68 0.0 0.0 0.00 0.00 0.00 54 1018.8
20200705123605 68 0.0 0.0 0.00 0.00 0.00 54 1018.7
20200705122605 68 0.0 0.0 0.00 0.00 0.00 54 1018.5
20200705121605 68 0.0 0.0 0.00 0.00 0.00 54 1018.3
20200705120605 68 0.0 0.0 0.00 0.00 0.00 54 1018.1
20200705115605 68 0.0 0.0 0.00 0.00 0.00 54 1018.2
20200705114605 68 0.0 0.0 0.00 0.00 0.00 54 1018.1
20200705113605 68 0.0 0.0 0.00 0.00 0.00 54 1018.3
20200705112606 68 0.0 0.0 0.00 0.00 0.00 54 1018.0
20200705111606 68 0.0 0.0 0.00 0.00 0.00 54 1018.0
20200705110605 68 0.0 0.0 0.00 0.00 0.00 54 1018.0
20200705105605 68 0.0 0.0 0.00 0.00 0.00 54 1017.8
20200705104606 68 0.0 0.0 0.00 0.00 0.00 55 1017.8
20200705103606 68 0.0 0.0 0.00 0.00 0.00 55 1017.7
20200705102605 68 0.0 0.0 0.00 0.00 0.00 54 1017.7
20200705101605 68 0.0 0.0 0.00 0.00 0.00 55 1017.6
20200705100606 68 0.0 0.0 0.00 0.00 0.00 55 1017.7
20200705095605 68 0.0 0.0 0.00 0.00 0.00 56 1017.8
20200705094606 68 0.0 0.0 0.00 0.00 0.00 57 1017.9
20200705093605 68 0.0 0.0 0.00 0.00 0.00 57 1018.0
20200705092605 68 0.0 0.0 0.00 0.00 0.00 58 1017.8
20200705091605 68 0.0 0.0 0.00 0.00 0.00 58 1018.1
20200705090605 68 0.0 0.0 0.00 0.00 0.00 59 1018.2
20200705085605 68 0.0 0.0 0.00 0.00 0.00 59 1018.1
20200705084606 68 0.0 0.0 0.00 0.00 0.00 59 1018.3
20200705083606 68 0.0 0.0 0.00 0.00 0.00 59 1018.4
20200705082606 69 0.0 0.0 0.00 0.00 0.00 60 1018.3
20200705081605 69 0.0 0.0 0.00 0.00 0.00 59 1018.4
20200705080607 69 0.0 0.0 0.00 0.00 0.00 60 1018.4
20200705075605 69 0.0 0.0 0.00 0.00 0.00 60 1018.0
20200705074605 69 0.0 0.0 0.00 0.00 0.00 60 1018.5
20200705073605 69 0.0 0.0 0.00 0.00 0.00 60 1018.6
20200705072605 69 0.0 0.0 0.00 0.00 0.00 60 1018.5
20200705071605 69 0.0 0.0 0.00 0.00 0.00 60 1018.9
20200705070605 69 0.0 0.0 0.00 0.00 0.00 61 1018.6
20200705065605 69 0.0 0.0 0.00 0.00 0.00 60 1018.9
20200705064606 69 0.0 0.0 0.00 0.00 0.00 60 1019.0
20200705063606 69 0.0 0.0 0.00 0.00 0.00 61 1019.6
20200705062605 69 0.0 0.0 0.00 0.00 0.00 60 1019.5
20200705061605 69 0.0 0.0 0.00 0.00 0.00 61 1019.5
20200705060606 69 0.0 0.0 0.00 0.00 0.00 61 1019.5
20200705055605 69 0.0 0.0 0.00 0.00 0.00 61 1019.5
20200705054605 69 0.0 0.0 0.00 0.00 0.00 61 1019.6
20200705053605 69 0.0 0.0 0.00 0.00 0.00 61 1019.6
20200705052605 69 0.0 0.0 0.00 0.00 0.00 61 1019.6
20200705051607 69 0.0 0.0 0.00 0.00 0.00 61 1019.6
20200705050606 69 0.0 0.0 0.00 0.00 0.00 61 1019.5
20200705045606 69 0.0 0.0 0.00 0.00 0.00 62 1019.6
20200705044605 70 0.0 0.0 0.00 0.00 0.00 61 1019.5
20200705043606 70 0.0 0.0 0.00 0.00 0.00 61 1019.5
20200705042605 70 0.0 0.0 0.00 0.00 0.00 62 1019.5
20200705041606 70 0.0 0.0 0.00 0.00 0.00 61 1019.8
20200705040606 69 0.0 0.0 0.00 0.00 0.00 61 1019.9
20200705035605 70 0.0 0.0 0.00 0.00 0.00 61 1019.7
20200705034605 69 0.0 0.0 0.00 0.00 0.00 61 1019.9
20200705033606 69 0.0 0.0 0.00 0.00 0.00 61 1019.6
20200705032606 70 0.0 0.0 0.00 0.00 0.00 62 1019.6
20200705031606 69 0.0 0.0 0.00 0.00 0.00 61 1019.7
20200705030606 70 0.0 0.0 0.00 0.00 0.00 61 1019.4
20200705025606 70 0.0 0.0 0.00 0.00 0.00 61 1019.5
20200705024606 70 0.0 0.0 0.00 0.00 0.00 61 1019.8
20200705023605 70 0.0 0.0 0.00 0.00 0.00 61 1019.5